GFSCGP_925_spd_336.txt.gz
Wind_Speed
3 1 7 13 11 7 7 5 7 6 8 2 7 9 14 17 14 10 9 10 10 11 21 17 23 26 24 24 27 25 22 24 24 23 18 20 22 16 12 13 11 12 11 10
6 7 11 10 12 6 8 3 6 9 3 5 8 9 3 8 4 3 7 11 12 12 9 15 21 20 23 24 24 22 25 26 25 22 22 21 21 14 15 16 15 16 14 14
5 11 12 8 10 9 3 6 4 7 9 10 14 6 2 2 6 6 7 12 8 14 9 7 14 22 23 23 22 23 24 25 23 21 22 21 24 20 20 20 17 16 17 16
7 6 6 7 5 4 3 3 2 6 4 4 9 4 2 3 5 6 8 10 7 6 5 5 13 19 22 21 19 18 18 17 20 18 19 23 24 21 23 20 21 15 13 12
12 5 5 4 6 5 7 6 2 3 3 3 3 5 3 3 6 7 3 4 6 6 8 7 13 7 7 4 4 6 9 12 15 15 19 23 24 21 23 22 14 10 14 17
8 4 6 8 5 2 5 1 7 6 4 3 4 5 4 5 6 4 3 8 8 5 6 4 2 2 5 3 3 1 2 5 9 12 13 17 20 25 26 27 27 21 18 20
6 5 4 3 2 7 8 6 4 5 5 5 3 3 4 6 8 6 8 6 6 7 8 6 8 11 10 7 6 6 7 5 3 6 10 12 15 18 20 24 31 28 22 24
4 6 4 2 5 6 2 6 5 3 3 3 4 2 4 5 7 4 4 8 8 8 8 7 10 11 9 12 14 12 9 4 3 4 6 6 7 11 16 22 23 24 24 25
4 4 4 4 3 5 4 2 5 4 0 2 3 1 3 4 7 3 10 6 7 7 5 5 10 12 11 9 9 9 6 2 3 5 1 5 8 11 16 16 20 26 26 21
6 7 5 5 3 3 4 2 2 3 2 4 2 2 4 7 9 9 8 6 5 5 7 5 7 9 7 10 13 9 7 9 8 3 2 4 9 12 16 18 15 19 24 26
4 3 7 4 3 3 4 2 5 4 4 3 1 4 5 9 7 11 8 7 6 7 7 7 9 13 13 16 14 11 12 9 4 2 2 5 6 10 14 18 19 22 25 25
3 3 3 3 5 2 2 3 4 4 5 1 4 5 5 8 8 8 7 6 3 7 8 7 9 11 12 9 9 9 7 2 2 3 7 12 10 14 15 17 20 25 27 22
3 3 4 8 6 6 2 1 3 4 3 2 4 4 2 5 7 7 7 6 4 5 6 3 3 3 3 7 2 3 2 3 3 9 12 13 14 12 16 19 23 23 22 19
3 2 5 5 7 3 5 4 3 4 4 2 4 5 7 9 10 9 8 6 5 5 6 2 5 11 11 9 8 7 8 9 11 12 13 13 11 12 17 22 23 19 20 10
4 2 2 6 6 5 5 2 2 3 6 6 6 10 13 10 9 8 7 5 7 6 6 7 6 10 8 7 7 8 10 13 15 15 16 15 12 14 19 21 22 20 17 8
1 3 2 5 6 8 1 7 3 6 11 8 6 1 5 3 6 6 7 7 6 8 6 6 6 9 9 11 11 11 12 12 15 17 19 21 13 17 21 22 23 16 12 9
3 2 1 4 5 7 4 7 7 4 8 4 5 7 6 4 6 7 6 6 8 7 6 5 6 10 11 10 9 10 8 11 14 17 18 23 21 17 20 22 22 17 12 14
3 2 2 3 5 3 1 3 7 6 5 6 6 5 4 5 5 7 6 8 7 6 5 5 11 11 8 7 9 9 10 13 16 19 21 22 22 20 21 18 21 21 15 14
4 4 3 2 1 1 1 3 2 1 2 5 7 5 5 5 8 7 4 5 6 5 6 9 13 10 8 10 9 9 12 15 17 21 21 21 22 20 19 19 21 22 15 11
7 7 5 2 2 2 3 3 5 3 2 2 6 3 2 3 3 2 1 4 7 9 9 13 12 10 10 10 9 8 10 16 18 19 21 20 19 20 19 20 19 23 12 4
3 3 4 2 1 5 8 7 2 1 6 2 5 4 4 4 4 5 5 5 9 8 11 16 11 8 8 5 6 8 12 14 15 20 21 20 20 18 19 18 17 18 10 6
3 4 2 2 2 3 4 3 0 4 0 6 5 5 9 8 6 6 6 6 7 10 18 13 9 5 4 3 7 7 10 13 15 17 18 19 20 21 20 17 15 13 12 9
3 4 4 6 4 4 3 6 3 4 5 5 6 5 7 7 5 6 5 5 7 14 11 9 7 5 1 4 5 6 9 11 12 16 17 15 18 19 21 17 18 10 12 13
7 2 3 2 2 4 5 3 3 4 5 5 6 6 6 7 5 5 5 4 4 6 10 7 4 1 5 7 8 9 10 10 10 14 17 13 14 18 17 18 19 11 10 11
3 3 2 3 4 3 2 2 6 5 10 10 7 7 7 7 4 4 4 5 4 2 10 8 5 6 10 6 7 8 8 9 8 11 15 13 12 15 14 17 18 9 6 6
2 1 3 2 5 4 3 4 7 9 7 6 7 4 5 8 6 7 7 9 6 4 6 12 12 12 7 7 10 11 10 7 7 9 13 13 10 12 13 16 19 14 8 10

GFSCGP_925_spd_339.txt.gz
Wind_Speed
2 4 4 12 11 2 5 4 4 2 6 7 7 9 17 15 11 8 10 12 10 13 20 19 20 20 19 21 23 23 24 27 26 23 23 27 30 27 24 22 15 14 15 17
5 4 11 4 4 7 7 5 7 4 3 4 6 4 10 13 11 10 10 9 11 10 8 12 17 17 18 21 20 20 23 25 24 24 29 25 24 24 18 17 18 16 19 20
6 11 4 3 4 9 3 6 6 7 4 4 6 1 3 5 5 5 8 10 7 12 10 7 13 19 18 17 18 19 17 21 22 24 26 22 24 25 23 21 18 14 16 24
6 7 1 4 6 5 5 9 6 7 6 4 3 4 5 6 7 6 6 9 10 10 7 7 11 15 17 15 12 12 14 16 17 17 16 19 22 25 27 23 23 22 18 17
12 4 1 1 6 7 9 7 4 3 3 5 0 2 4 3 5 6 6 4 7 8 7 6 6 7 8 5 4 5 7 8 10 12 14 17 21 23 23 24 25 25 21 18
10 2 4 6 4 3 2 1 2 3 3 3 2 5 3 5 6 4 2 3 6 6 5 6 8 9 10 8 8 6 5 7 8 9 11 16 18 19 21 22 24 26 27 27
6 6 5 2 2 2 2 5 4 4 4 5 1 1 6 5 5 8 8 8 7 7 7 7 9 12 13 10 9 9 10 10 10 11 13 14 16 17 20 21 23 26 27 24
3 7 3 2 5 5 1 6 5 5 4 4 3 3 3 3 5 5 6 7 4 7 6 6 8 11 12 13 14 13 14 15 14 14 12 10 11 14 17 20 22 25 26 25
2 4 4 1 2 4 1 3 3 5 2 2 2 5 5 1 4 5 5 7 7 6 5 7 10 14 14 16 17 17 19 17 13 11 8 10 11 14 18 19 21 22 23 23
8 3 3 5 6 3 3 2 2 3 2 5 2 4 5 7 9 6 7 9 8 6 7 6 10 15 17 16 17 18 15 12 11 9 9 11 11 14 18 21 23 23 22 25
2 3 5 3 1 4 4 3 5 4 3 3 1 5 6 9 11 10 8 8 8 8 8 7 11 15 16 14 16 14 10 10 10 10 9 12 16 18 17 19 21 24 27 27
3 4 1 4 4 4 3 2 4 4 3 1 3 6 2 9 8 10 9 9 7 6 7 5 9 9 6 7 7 8 8 7 7 6 11 16 16 15 16 16 19 22 24 23
1 3 3 8 6 6 3 3 3 4 3 4 4 6 1 3 7 7 9 7 5 5 4 4 2 1 7 5 3 3 2 1 7 12 13 17 18 15 14 18 21 22 22 24
3 3 4 4 6 2 5 6 2 5 3 3 5 3 4 6 7 6 5 3 4 5 5 5 6 8 10 8 7 4 2 6 9 11 12 15 14 13 14 19 21 21 19 20
4 1 2 4 6 5 7 5 2 2 3 3 6 5 5 12 9 7 6 3 5 6 7 6 4 6 5 5 5 3 3 5 7 10 11 14 15 14 16 18 19 21 15 15
2 2 3 5 4 5 3 10 7 6 3 3 0 5 3 3 5 2 4 6 6 7 6 5 5 6 6 6 3 1 3 7 8 10 12 16 16 15 15 17 18 18 15 11
3 2 3 4 7 7 4 5 2 1 1 3 3 5 1 6 5 2 6 8 8 6 5 5 6 8 6 3 3 4 4 6 9 12 13 15 15 17 16 15 17 19 19 12
4 3 2 3 6 3 3 2 4 2 4 6 4 5 6 6 4 7 5 8 6 6 5 4 8 6 3 1 2 2 5 10 11 13 15 16 17 17 15 16 18 20 21 15
4 4 2 1 1 4 1 3 1 3 3 5 5 6 7 6 6 7 4 2 5 5 5 6 8 5 2 0 2 4 8 10 11 14 16 17 17 15 16 17 19 20 22 14
8 6 4 1 1 2 1 2 3 2 4 4 3 4 5 2 2 3 3 3 4 6 6 10 8 4 1 2 4 6 9 9 10 14 15 15 16 17 17 20 18 18 17 11
3 3 3 2 1 5 4 5 3 3 5 1 2 2 3 3 4 4 5 4 6 5 8 9 7 4 3 5 6 8 9 11 11 14 16 15 15 18 19 19 17 15 16 11
3 3 2 2 1 3 4 3 3 4 1 2 3 3 4 5 5 4 5 5 6 8 12 10 7 8 7 9 9 10 12 12 12 13 16 15 14 16 17 17 17 13 12 12
2 4 3 5 4 4 4 1 2 4 4 4 5 3 5 5 3 5 4 5 7 14 13 11 10 10 10 12 12 14 15 13 13 12 13 16 13 16 17 17 17 13 10 10
5 1 3 3 2 2 3 2 2 2 3 3 4 5 5 5 5 5 4 6 8 13 14 13 12 12 14 9 13 18 18 16 13 12 14 17 13 14 16 18 17 11 8 11
3 3 1 2 4 3 3 3 4 7 7 8 5 5 7 6 6 7 7 10 13 12 15 16 15 17 15 11 14 16 17 13 12 12 12 13 14 14 14 16 16 12 9 12
2 2 3 3 4 3 5 1 8 8 6 7 7 4 7 10 8 10 9 16 15 14 13 15 19 20 20 17 18 19 17 11 11 12 11 13 13 12 12 12 14 14 13 8

GFSCGP_925_spd_342.txt.gz
Wind_Speed
1 4 5 12 12 6 5 6 8 3 5 4 9 6 11 12 8 7 6 6 8 9 12 13 15 17 18 19 20 19 19 20 21 22 24 25 24 25 24 21 22 18 17 17
4 4 11 4 5 5 5 3 6 3 2 2 3 3 7 11 13 9 6 6 9 5 5 10 14 13 17 18 18 16 17 17 16 19 20 21 22 23 23 23 22 22 18 18
5 10 4 3 3 3 4 5 5 4 4 2 5 4 6 6 10 7 7 9 7 9 10 7 13 17 15 18 17 14 13 13 14 14 14 15 15 17 20 21 20 19 20 21
5 4 3 3 5 7 5 7 4 5 4 4 2 4 5 6 9 13 10 9 8 11 8 6 14 15 17 18 14 12 11 10 10 8 10 11 14 17 21 20 20 21 21 22
12 3 3 4 6 7 9 4 5 4 4 3 1 2 5 1 6 10 11 10 9 11 8 7 10 13 12 12 11 8 7 5 5 7 9 11 15 19 20 19 20 20 21 22
10 2 4 8 4 5 3 3 6 4 4 1 4 5 6 4 6 4 5 6 6 5 5 5 7 9 10 10 11 9 6 4 7 10 11 13 15 18 19 21 23 23 23 24
5 6 4 3 0 3 7 5 3 3 2 5 4 3 8 5 7 6 7 7 7 6 6 6 7 8 11 12 11 8 9 12 14 15 14 14 17 17 17 20 23 25 26 27
3 8 1 0 4 5 6 7 5 6 4 5 3 5 5 5 6 5 6 5 5 5 6 6 10 15 17 14 13 13 15 17 16 15 15 16 18 17 18 20 20 21 22 26
6 6 3 3 2 6 3 3 4 4 2 2 2 6 6 1 2 3 6 5 6 7 7 7 10 15 18 16 16 17 19 21 15 14 17 16 15 16 20 22 23 25 25 24
2 3 1 4 2 3 2 4 2 3 2 4 3 4 5 5 8 7 7 8 8 6 5 5 9 14 16 15 17 18 18 14 12 14 12 13 17 17 21 25 23 25 25 25
2 3 5 2 1 2 3 2 6 4 3 2 2 6 6 9 10 10 9 9 8 6 5 6 8 13 11 11 13 12 11 9 10 9 11 13 17 21 21 20 21 21 24 27
1 4 2 5 4 3 1 1 3 4 4 1 3 6 2 6 7 7 7 8 6 5 6 3 2 4 6 5 4 4 5 6 9 9 11 15 18 21 22 19 18 21 25 28
5 1 3 7 6 5 3 2 4 4 3 5 3 6 2 5 5 3 7 7 6 5 3 3 3 3 3 2 1 2 3 4 7 10 13 17 21 23 22 18 19 23 24 26
5 3 5 5 6 2 5 7 2 4 3 1 4 7 6 6 5 0 4 4 4 5 3 4 5 5 6 6 3 1 2 6 11 15 17 18 19 21 21 20 20 22 22 23
4 3 1 4 5 2 2 5 3 2 1 2 6 3 6 6 7 4 4 5 6 5 5 6 4 2 3 1 1 4 8 11 14 16 16 18 21 22 23 21 20 19 21 22
3 1 1 3 3 3 3 6 4 4 1 3 4 5 3 5 4 5 5 6 6 6 3 2 4 2 1 2 4 8 10 12 14 16 18 19 20 21 22 20 18 19 21 23
3 3 3 4 5 2 3 3 3 2 3 2 3 4 7 8 8 5 5 7 7 7 5 5 4 2 1 1 5 8 10 12 14 16 17 20 20 22 22 20 20 20 22 24
4 3 2 2 5 3 3 2 2 1 2 5 4 4 5 3 3 6 3 5 6 5 4 2 3 3 1 3 6 8 10 12 13 14 16 19 20 20 19 21 22 23 23 23
2 5 3 2 1 4 1 3 2 4 3 4 4 3 3 3 2 5 1 2 5 4 4 3 5 5 3 5 7 8 11 13 13 14 17 19 19 19 20 21 24 24 22 22
5 6 4 2 2 2 2 3 2 2 4 4 5 5 4 2 4 4 3 3 3 3 3 5 7 4 5 8 9 10 12 13 15 17 18 20 20 19 20 21 23 22 19 18
3 3 3 2 0 4 3 6 1 4 5 3 1 3 3 2 5 3 4 2 3 3 4 6 7 7 9 9 10 12 14 17 16 16 18 21 21 18 19 21 21 21 17 16
3 3 1 3 1 1 4 2 3 4 1 1 1 2 3 1 2 1 3 3 3 4 6 9 10 12 13 12 11 15 18 19 16 16 18 20 22 18 18 19 22 20 14 14
1 4 3 4 4 3 3 2 1 3 4 3 2 2 3 3 2 3 4 5 7 9 11 12 14 15 18 16 15 18 19 19 18 17 17 19 23 17 16 18 22 20 12 10
3 2 3 2 2 3 2 1 2 2 2 3 2 5 5 3 5 7 6 6 9 11 15 18 16 18 22 20 16 18 19 20 20 16 15 16 19 17 17 17 19 15 11 12
2 3 1 1 3 3 2 2 2 2 5 5 4 5 5 6 7 7 6 9 14 17 18 18 20 22 25 25 21 21 21 18 16 11 11 13 16 15 15 14 14 15 12 8
1 3 3 3 4 3 6 3 4 6 5 7 6 4 9 11 8 8 8 16 15 17 20 16 19 23 26 26 24 22 20 17 14 10 9 9 12 14 13 11 14 11 13 12

GFSCGP_925_spd_345.txt.gz
Wind_Speed
3 5 8 10 13 13 8 8 13 5 4 9 14 17 11 11 13 13 13 13 14 15 16 17 19 17 16 17 18 20 19 20 17 13 12 11 10 10 10 10 14 15 12 14
3 9 12 4 7 10 8 7 8 2 2 10 4 14 11 12 15 17 15 14 15 14 12 14 15 15 16 18 19 17 18 16 12 10 11 12 10 10 12 11 12 11 11 10
5 6 3 7 3 5 6 8 9 5 6 2 3 8 6 6 13 14 17 14 13 14 13 12 14 15 15 16 16 16 15 11 9 8 10 10 9 8 7 8 9 9 11 13
6 1 3 2 10 3 13 6 10 5 5 8 2 5 4 5 11 16 17 18 16 14 13 12 11 12 15 14 13 12 9 7 8 9 9 7 6 6 6 8 10 13 16 17
12 9 9 12 11 5 13 1 2 5 4 3 5 4 4 3 8 15 16 17 18 13 12 12 10 11 11 8 7 7 6 7 8 8 8 9 9 7 10 13 15 14 16 15
14 1 5 13 12 7 4 3 3 3 1 6 4 6 4 4 3 4 4 13 13 13 11 10 6 7 9 10 11 11 8 9 9 9 11 13 12 10 11 12 12 13 14 15
5 7 3 4 5 3 2 2 5 5 4 9 4 5 9 4 6 8 7 7 9 6 7 9 11 12 11 12 9 9 9 10 10 13 14 13 14 15 15 14 13 15 15 16
6 10 6 4 4 2 3 3 4 9 10 12 3 5 2 1 6 5 4 5 6 7 7 8 9 11 11 8 7 10 10 11 13 14 13 14 15 13 12 11 14 17 16 18
6 6 2 3 2 3 3 4 2 2 1 4 1 4 7 2 6 4 4 6 9 8 7 5 6 10 14 8 13 12 10 11 9 9 12 14 13 11 13 15 20 20 20 18
3 3 1 2 3 7 1 3 3 1 4 5 1 4 5 6 7 7 8 11 9 6 5 5 8 8 9 10 7 7 8 9 10 10 10 9 12 12 17 21 23 19 18 17
4 1 1 3 1 0 1 2 2 0 2 3 5 5 5 9 8 7 9 8 6 6 6 6 5 2 3 5 5 6 7 6 6 6 7 8 11 16 19 20 19 15 16 17
1 3 2 1 1 2 1 1 1 3 2 0 2 3 4 8 9 8 8 7 7 6 5 1 4 6 2 4 3 4 4 5 5 6 8 10 14 16 16 17 16 14 16 17
3 1 2 1 3 2 2 2 2 2 1 4 6 3 5 8 9 8 7 2 5 4 5 7 9 5 5 3 3 4 5 5 7 10 12 13 14 15 17 18 18 18 17 18
3 2 2 3 2 2 4 8 4 2 2 1 2 8 11 17 15 9 7 7 8 8 9 6 3 3 1 4 5 5 6 9 10 12 14 16 17 18 19 19 19 18 17 17
2 3 2 2 2 2 2 4 5 2 3 4 8 9 11 13 13 7 6 7 8 9 6 7 4 1 3 4 4 5 7 10 13 16 17 18 19 19 18 19 18 16 16 17
1 1 0 2 0 3 4 3 1 5 6 4 7 6 11 8 6 6 4 5 7 8 5 4 3 1 3 3 4 8 11 13 15 17 17 17 18 18 18 17 17 17 17 18
1 3 1 1 5 5 3 3 5 3 5 3 7 4 8 7 8 7 5 4 5 3 2 3 0 2 2 4 6 9 11 12 15 16 15 16 17 18 18 17 18 19 20 19
4 3 1 2 4 2 3 1 1 2 6 5 3 2 4 4 4 4 3 4 4 3 1 0 2 1 1 4 7 9 10 12 14 15 16 18 20 20 20 19 20 21 20 18
2 3 2 2 1 2 2 2 1 2 4 4 2 1 3 2 3 1 1 1 2 1 1 1 2 1 2 5 8 9 11 13 14 15 17 17 19 21 21 19 21 21 19 18
5 5 0 2 1 2 3 3 1 1 2 2 0 1 3 4 5 5 4 3 2 2 1 2 3 3 5 7 7 9 12 13 14 15 15 16 17 20 22 18 20 19 18 16
1 2 1 2 2 1 2 6 1 3 4 1 1 2 4 3 3 4 2 3 2 3 4 3 5 7 8 9 9 12 14 15 14 15 16 16 19 20 17 19 19 20 19 15
0 2 2 2 2 2 4 1 1 3 2 2 2 1 1 1 1 1 3 4 5 6 5 5 7 9 11 10 10 15 16 15 16 16 16 14 17 18 14 17 19 23 19 12
1 1 1 1 2 1 2 2 1 3 1 2 2 2 2 2 3 4 4 4 6 7 7 7 9 11 14 15 13 15 19 18 16 16 12 12 14 15 12 16 16 15 14 11
2 2 2 4 2 1 1 1 2 3 2 4 3 3 5 4 5 6 5 5 6 6 9 9 9 13 15 18 16 17 19 17 14 12 9 9 10 13 12 12 11 13 13 12
2 1 3 3 2 2 1 2 1 2 3 5 4 4 7 7 8 7 7 8 8 8 10 10 11 13 17 19 18 19 18 13 11 10 7 7 9 11 11 11 11 14 11 12
1 2 1 3 2 1 3 3 2 5 6 6 6 7 10 10 10 7 9 11 9 10 10 11 13 14 17 16 17 18 13 9 9 9 7 9 10 11 11 11 13 13 12 14

GFSCGP_925_spd_348.txt.gz
Wind_Speed
10 9 10 8 7 10 12 12 11 9 2 7 13 15 14 8 12 13 14 15 15 14 12 13 14 14 15 15 14 15 15 15 13 10 10 11 11 11 12 9 10 11 12 14
7 12 8 7 6 9 10 10 10 6 3 8 12 16 15 10 13 14 15 16 16 15 13 15 14 15 17 17 17 16 14 11 10 9 9 9 8 10 9 8 8 8 9 10
16 13 2 8 13 8 14 16 10 11 2 11 10 18 12 4 8 10 13 15 16 16 16 14 14 15 16 17 16 13 12 11 11 12 8 8 7 8 7 5 8 7 8 9
11 9 9 8 14 15 13 13 10 7 7 12 3 14 16 4 9 9 11 13 15 15 14 12 15 16 18 15 12 14 14 13 11 11 7 7 10 10 9 9 9 10 9 10
17 15 10 12 16 15 16 11 9 9 11 11 18 7 9 4 9 4 5 11 13 16 14 14 14 17 16 15 15 13 12 10 9 8 7 8 9 11 10 12 10 11 10 11
18 13 7 13 17 14 11 9 7 9 11 13 5 5 11 10 8 8 6 5 7 10 12 9 7 9 14 10 10 11 11 10 10 9 9 12 13 13 15 16 16 18 15 17
18 18 16 8 14 10 9 11 12 10 9 9 4 5 9 9 7 9 7 4 3 5 7 7 8 11 12 14 11 10 9 7 8 9 11 11 12 13 15 15 18 15 19 20
15 12 13 9 10 11 4 7 8 18 15 16 6 5 4 5 6 5 3 3 4 4 5 7 9 10 11 11 4 7 10 5 7 8 9 10 10 14 15 16 13 17 19 21
14 12 2 3 4 6 4 8 6 11 17 10 5 2 8 1 4 4 3 1 3 5 5 6 8 6 7 2 2 4 5 8 9 9 10 10 10 10 11 11 12 18 20 21
5 11 3 6 5 3 6 3 7 7 9 12 6 7 6 12 12 11 5 2 2 4 6 5 3 3 3 5 8 7 8 8 9 10 10 10 10 10 12 13 16 19 22 21
3 4 4 5 7 7 4 7 3 4 6 9 9 6 8 11 11 12 12 9 2 4 4 4 5 6 4 5 6 9 6 7 7 8 9 10 12 13 15 16 19 20 21 20
2 3 6 4 3 2 3 4 3 6 6 4 6 4 9 11 11 11 11 9 6 4 3 6 7 8 8 10 10 5 5 6 6 8 11 13 15 17 18 19 19 19 20 20
2 3 7 10 4 2 2 2 3 4 5 12 8 4 10 13 13 11 11 9 7 6 7 7 9 7 2 2 4 6 6 8 10 13 16 17 18 19 19 20 19 19 20 19
4 3 6 9 5 5 4 4 4 4 7 6 2 9 15 13 14 11 8 7 7 7 7 5 4 3 3 6 6 7 9 11 13 16 17 18 18 18 18 19 19 19 18 17
3 5 5 1 1 3 3 3 1 1 3 5 10 6 10 11 9 8 5 4 4 5 1 2 4 3 5 6 7 8 10 13 15 15 16 15 16 17 18 18 17 17 17 19
2 4 5 5 5 4 1 2 2 2 5 2 3 7 6 6 8 8 7 6 2 4 4 5 4 5 7 7 8 9 12 12 13 14 15 15 17 19 20 19 18 19 19 20
4 3 4 2 1 3 5 4 2 4 5 6 6 5 6 7 7 7 6 5 3 4 5 5 6 7 8 7 7 11 11 11 12 13 15 17 18 18 18 20 21 19 20 20
4 3 2 4 6 7 5 3 2 4 3 4 3 4 5 4 3 4 5 5 4 4 5 5 7 8 5 7 9 9 11 12 13 14 16 19 21 22 23 24 19 20 20 18
3 5 1 5 5 3 5 3 1 3 4 3 3 3 2 3 7 7 3 3 6 6 5 6 8 7 6 7 8 10 11 13 14 16 18 21 21 22 22 23 18 19 20 20
3 3 5 1 6 5 7 3 1 3 6 3 1 2 3 6 7 8 6 3 5 5 6 7 9 8 6 8 8 11 13 14 16 18 19 18 21 21 22 19 19 21 20 18
5 3 6 2 5 3 4 2 1 6 5 3 1 2 3 5 5 5 4 5 5 8 8 7 8 8 9 9 9 12 14 16 17 18 18 19 19 22 18 17 21 19 19 16
4 3 2 2 6 4 2 5 5 6 2 1 2 2 3 4 1 2 4 4 6 7 7 7 8 9 9 11 12 14 16 18 19 20 17 18 17 19 18 18 16 18 17 14
2 3 4 5 4 4 2 4 3 2 2 2 4 1 3 3 2 1 3 4 5 6 7 8 9 10 11 11 12 14 16 18 18 18 17 15 16 15 15 15 13 15 14 16
3 1 1 7 4 2 2 1 3 5 4 1 2 1 3 3 3 4 4 4 6 7 7 8 10 12 13 12 13 14 15 15 15 16 15 13 13 11 13 15 13 15 16 15
4 4 4 4 4 5 4 2 3 3 3 4 2 1 3 4 5 6 6 8 9 10 11 10 11 13 15 15 14 14 14 12 13 14 12 12 11 9 13 11 11 12 9 10
4 2 5 2 4 2 3 1 1 3 5 5 4 5 6 8 8 8 8 11 11 11 11 12 14 14 14 14 13 13 12 10 11 12 12 11 10 9 10 11 11 5 7 5